Theta_e
305 307 304 304 303 303 303 304 303 303 303 303 304 304 304 304 302 302 304 304 304 304 305 304 304 302 303 303 303 304 302 302 302 301 307 309 310 318 318 318 320 314 315 314 313 315 315
305 304 303 303 304 303 303 304 303 302 303 303 303 303 303 303 302 302 304 304 305 304 304 303 303 303 303 305 304 304 304 303 302 302 303 309 309 316 316 318 320 315 314 313 315 313 315
303 303 303 303 303 303 304 304 302 302 303 303 303 301 301 302 300 302 303 302 300 302 301 302 302 302 305 304 304 303 302 303 302 302 306 308 308 311 317 317 320 314 313 313 313 313 313
303 302 303 302 302 302 304 304 303 303 303 303 302 301 298 297 298 300 299 298 301 303 303 303 304 305 305 304 304 303 303 303 304 303 306 308 308 310 318 318 317 310 311 313 312 312 314
303 302 301 299 299 302 302 304 304 302 302 302 298 295 294 295 299 298 299 301 301 303 303 303 303 304 303 303 303 303 303 304 304 304 306 308 310 313 316 317 311 310 313 311 312 311 314
302 300 299 297 297 299 302 302 302 301 300 295 295 295 296 296 299 298 300 301 302 301 302 302 303 302 302 301 301 303 304 304 304 305 308 309 309 317 316 316 315 312 311 309 310 311 314
301 300 299 298 296 296 297 299 299 295 294 295 294 295 297 297 298 298 299 301 301 301 302 302 302 302 302 301 303 304 304 304 303 307 309 308 314 319 319 313 312 308 309 310 309 312 313
300 300 300 299 297 296 296 297 296 295 294 295 295 296 298 298 298 298 297 299 299 300 300 299 300 300 301 302 302 302 302 302 305 312 311 309 315 316 317 310 309 308 309 310 312 312 313
301 301 301 301 299 297 297 296 296 295 295 295 296 298 299 299 299 300 297 299 300 300 299 299 299 301 300 301 301 301 303 303 309 314 313 314 314 312 314 309 309 307 310 310 313 311 312
301 301 302 301 301 299 297 296 296 296 295 295 296 297 299 299 299 300 297 298 299 300 296 299 299 300 299 300 302 305 305 305 310 312 313 314 310 312 309 310 309 308 308 311 312 311 311
301 301 301 301 301 299 297 296 296 296 296 296 297 298 299 298 299 300 300 299 299 299 299 299 298 299 299 302 304 307 308 308 313 314 312 312 310 309 308 307 307 308 310 312 312 310 311
299 300 300 301 301 301 298 297 297 296 297 296 297 297 298 297 298 299 301 300 299 292 297 297 298 299 301 303 304 308 310 312 312 311 311 310 310 309 309 308 307 307 310 310 310 311 314
300 300 300 301 301 301 301 299 297 297 297 296 297 297 298 297 297 298 300 298 293 292 296 298 298 298 300 301 304 308 308 307 310 313 313 312 312 310 309 309 309 310 312 315 315 315 315
300 300 300 300 300 301 301 301 298 298 297 297 297 297 298 298 298 297 296 292 293 295 296 297 297 297 298 299 303 304 304 303 303 305 310 307 311 311 309 308 308 309 309 313 311 310 308
301 300 301 301 300 300 301 301 301 298 298 297 297 296 297 297 298 298 297 293 293 294 295 296 296 296 297 296 300 303 302 302 303 303 307 310 312 311 309 309 309 309 308 307 306 304 307
301 301 301 301 301 301 301 301 302 299 298 298 297 295 295 296 297 298 293 295 295 294 294 295 294 293 292 292 297 295 301 301 302 303 303 309 310 312 309 310 309 307 306 309 306 307 308
301 301 301 302 301 301 301 301 301 300 299 299 297 295 294 296 297 295 289 294 294 293 293 294 294 292 290 290 286 290 296 301 301 302 303 306 309 311 309 309 309 309 308 307 306 307 308
301 301 301 301 301 301 301 301 301 301 299 299 297 292 293 295 291 288 288 293 293 293 292 292 293 295 293 294 293 291 295 297 299 299 306 306 308 310 310 309 310 309 309 306 309 310 307
300 300 301 301 301 301 301 301 301 301 299 298 295 295 294 295 288 283 291 292 292 292 291 291 292 292 293 294 296 295 296 297 296 299 304 305 309 307 308 310 309 311 309 307 305 306 308
300 301 301 301 301 301 301 301 301 300 300 298 295 290 294 292 290 288 288 290 292 292 291 291 290 292 293 293 293 295 294 296 295 296 300 303 309 310 309 311 309 311 310 307 307 307 306
299 300 300 301 301 301 301 301 301 300 300 298 295 287 289 287 288 279 283 281 285 288 290 291 290 291 291 290 293 293 292 293 296 294 295 298 304 309 311 310 309 310 310 308 308 308 308
297 299 300 300 301 300 300 300 301 300 300 299 296 294 293 292 287 282 284 282 286 288 287 287 287 289 287 284 288 287 289 293 292 293 293 293 300 304 311 310 306 310 306 307 308 307 305
295 296 299 299 300 300 300 300 299 300 300 298 296 295 293 289 281 282 282 286 287 290 289 291 290 286 288 289 288 289 289 290 291 293 292 289 291 299 303 309 307 308 304 301 298 294 301
295 295 296 298 299 300 299 299 298 298 299 299 297 295 294 285 286 283 285 290 291 291 284 291 290 286 289 290 292 292 291 291 293 293 294 296 291 299 300 309 313 300 292 292 295 292 291
296 295 295 296 297 299 299 299 298 298 298 298 298 296 294 284 288 289 288 288 289 288 290 291 291 289 289 292 288 287 290 291 291 295 295 294 293 301 301 299 300 298 293 293 297 300 288
297 296 294 295 296 297 299 299 299 298 297 297 297 297 295 292 288 291 291 289 281 279 279 289 291 288 291 291 284 286 290 288 292 293 292 295 295 291 293 298 302 297 290 290 291 303 287
297 297 295 294 294 296 297 299 299 298 297 297 297 297 296 291 292 291 289 286 289 285 278 285 287 287 290 280 279 285 289 286 291 291 290 287 283 292 297 296 297 288 289 291 303 301 285
296 296 296 295 293 294 295 297 299 298 297 297 296 296 296 294 292 292 291 291 290 289 279 286 284 284 282 282 282 283 284 285 284 281 285 289 290 290 287 293 302 288 289 295 288 284 285
296 295 296 296 294 293 293 295 298 300 297 296 296 296 295 292 291 292 291 290 291 290 288 286 285 286 287 281 278 280 286 283 280 287 278 286 286 289 292 294 288 288 287 290 287 285 284
Wind_Speed
23 23 25 23 24 24 24 24 24 24 23 23 22 21 22 23 24 24 23 23 20 16 16 11 7 7 4 7 1 4 6 9 8 5 12 28 17 20 20 13 18 5 6 5 7 16 7
25 24 25 25 25 25 26 25 25 26 25 24 23 22 23 23 24 24 23 22 17 13 11 9 3 4 2 2 5 1 2 7 10 8 13 25 14 18 29 17 18 12 9 1 5 8 9
25 25 26 26 26 27 27 27 28 27 27 25 24 22 22 23 24 23 21 19 7 3 4 3 2 3 1 2 3 7 5 5 8 8 17 27 36 6 26 12 26 14 6 3 1 3 4
26 27 26 27 28 28 27 28 28 28 27 26 23 21 20 22 23 20 17 9 1 1 5 5 2 1 2 3 7 12 7 8 3 8 16 24 29 15 14 17 15 7 6 5 4 4 3
27 28 30 30 31 28 29 29 29 28 26 24 19 18 20 22 19 17 10 3 2 2 5 6 4 0 1 6 10 12 6 8 8 9 11 16 20 14 12 19 8 2 15 6 3 3 4
28 31 32 33 33 32 30 30 29 28 25 20 18 20 21 19 15 14 7 15 15 5 2 2 7 1 3 15 16 10 3 7 3 14 17 15 13 3 10 19 17 16 14 4 7 5 5
29 31 34 35 34 35 35 33 29 28 22 19 19 24 20 19 14 13 6 5 1 4 10 5 5 4 10 21 7 5 6 6 8 14 4 10 5 12 26 23 19 9 13 14 1 3 7
31 34 36 36 35 35 37 36 29 30 22 18 22 22 18 14 13 12 5 5 7 1 3 13 12 14 17 16 5 7 4 7 7 10 16 4 9 15 24 13 14 8 16 4 5 4 7
34 37 39 40 39 38 37 37 29 29 23 18 26 23 17 10 9 12 13 8 5 2 2 8 13 9 21 19 4 6 4 7 6 15 16 5 10 9 18 15 15 4 19 6 9 5 7
35 37 39 41 42 40 38 38 29 28 23 22 26 24 19 13 5 11 10 4 5 2 4 14 14 5 18 20 5 5 3 4 3 18 19 8 2 15 14 8 14 7 8 9 10 6 6
34 37 40 42 43 41 38 39 30 25 21 25 25 26 23 22 10 9 6 2 6 1 5 19 11 18 33 6 11 11 6 6 10 16 8 2 11 12 8 5 6 6 6 8 5 6 6
34 37 39 41 43 43 41 40 33 23 20 18 27 24 27 23 19 9 6 6 2 6 5 10 9 15 15 17 11 9 13 23 12 18 11 6 4 5 3 5 5 8 9 9 6 4 1
34 37 39 40 42 43 43 42 35 23 22 17 24 24 26 27 22 7 6 4 6 6 8 12 10 14 12 10 14 12 10 12 7 10 11 9 5 4 5 9 7 7 15 3 3 2 4
34 37 39 40 41 42 43 43 38 24 22 13 23 21 21 25 21 11 6 8 11 4 4 6 7 13 8 14 14 18 12 10 12 9 8 4 5 5 5 5 7 2 5 5 6 4 5
32 35 39 41 42 42 41 41 40 26 20 15 9 26 27 23 18 7 15 7 3 3 6 8 9 7 9 8 5 7 10 8 8 11 5 5 2 3 3 2 2 4 2 3 8 2 3
29 33 37 41 44 42 41 40 40 28 17 17 6 8 31 19 14 14 7 9 3 6 5 3 7 5 9 12 8 7 10 7 9 7 7 2 5 3 3 3 3 5 6 4 2 6 5
27 31 36 40 44 44 43 40 39 32 12 26 14 6 30 6 20 20 5 5 4 11 9 7 5 6 4 4 4 5 4 1 8 9 8 4 2 2 3 2 3 2 1 4 5 4 5
24 29 33 38 42 44 43 42 41 37 19 8 22 5 35 14 9 6 3 4 6 10 13 6 4 5 3 4 6 4 4 3 13 7 5 4 2 4 3 4 1 2 2 4 5 4 1
20 25 30 35 39 41 42 41 40 39 24 13 6 6 28 15 5 4 3 4 7 9 7 7 7 5 3 5 5 4 4 5 10 7 4 6 3 3 6 6 1 3 3 4 3 3 6
16 21 25 30 34 38 41 42 39 37 26 12 5 4 10 22 9 5 3 4 3 7 4 4 5 4 3 5 4 4 7 3 9 10 8 5 1 2 6 6 3 4 4 4 4 3 4
12 16 20 25 30 34 38 41 41 35 33 12 8 1 3 4 7 4 4 1 3 5 8 11 3 7 1 3 4 5 4 5 3 15 8 3 3 0 2 2 3 2 4 6 5 3 4
10 12 15 20 25 29 34 37 41 40 31 34 6 3 5 4 2 4 5 3 3 5 3 6 4 4 5 4 4 3 2 4 1 7 7 8 2 2 1 3 5 3 3 3 5 3 4
10 10 12 15 20 24 28 33 36 38 39 20 15 8 4 6 4 4 2 1 2 2 2 1 2 1 3 1 4 7 7 6 2 4 5 5 4 3 3 2 4 5 4 2 3 0 4
11 11 11 11 14 19 23 27 30 33 35 30 23 9 4 2 3 2 2 2 2 2 3 4 2 2 3 11 7 2 4 6 5 7 9 0 2 1 2 1 5 1 1 1 2 1 1
13 12 11 11 11 13 18 22 24 28 28 29 26 16 4 0 2 1 3 2 3 4 3 3 3 4 10 5 3 4 4 4 3 2 3 3 2 1 1 3 4 2 4 5 5 3 7
16 14 13 12 12 11 13 18 20 23 25 24 26 21 7 4 4 3 4 2 2 0 5 4 5 6 3 2 3 3 2 3 4 7 5 3 4 3 2 2 6 2 1 4 1 5 10
21 18 15 13 13 13 11 12 17 19 22 21 23 24 11 2 4 3 2 3 2 2 2 4 3 1 2 2 3 2 3 2 2 2 2 2 3 4 2 3 7 2 4 3 3 4 11
25 22 19 16 15 14 14 13 14 17 17 21 20 23 17 5 5 5 4 4 3 3 3 0 2 2 3 3 3 3 2 4 1 3 5 5 5 3 3 1 7 8 5 4 2 8 10
30 27 24 21 18 16 15 14 13 16 17 17 19 23 20 3 4 7 9 8 7 6 4 3 2 3 3 4 0 2 2 1 2 3 2 3 5 3 6 5 3 20 3 7 10 12 11
Wind_Direction
1 1 359 357 355 352 348 344 340 334 333 328 325 325 319 320 320 322 320 319 321 317 317 308 290 331 49 79 325 175 19 17 7 273 205 200 213 183 193 182 179 137 158 192 113 166 173
5 360 358 356 353 351 349 343 339 337 332 331 328 323 319 319 319 322 322 321 321 318 321 321 232 227 87 49 91 16 315 327 303 255 199 203 204 203 197 175 183 161 140 147 194 110 143
3 360 358 356 355 351 347 345 341 339 335 332 328 320 320 321 323 325 323 325 327 355 356 43 138 161 293 11 33 349 332 320 306 215 191 204 212 251 165 146 188 153 111 19 109 144 112
6 2 358 357 356 354 349 344 342 340 338 335 328 326 330 330 330 334 332 342 20 113 79 82 87 207 273 318 308 335 308 334 347 214 186 197 203 255 170 143 172 111 81 116 283 133 82
9 3 4 3 2 355 353 347 345 344 342 337 344 347 340 335 341 349 358 65 78 176 84 72 30 316 323 317 307 325 298 309 305 181 184 173 194 229 158 145 134 105 175 148 181 177 116
11 12 8 9 5 1 355 351 348 347 349 1 7 354 345 342 352 358 114 99 84 67 183 312 19 263 209 324 319 297 260 297 178 165 152 158 212 178 159 158 171 171 168 120 157 174 56
15 14 13 12 8 6 2 357 355 360 2 6 9 358 353 347 9 353 201 205 315 79 54 68 305 257 302 340 321 193 269 201 204 191 149 121 204 161 165 172 160 138 162 160 37 203 101
20 20 19 15 10 8 5 3 3 4 8 9 4 4 5 356 7 7 354 155 103 72 328 20 7 323 326 346 315 266 271 187 201 140 120 147 202 176 165 146 128 106 137 123 42 78 88
24 22 21 17 13 10 7 8 10 7 11 11 6 15 23 23 8 23 44 111 130 24 10 351 17 354 341 340 296 273 201 177 146 132 141 156 165 155 146 128 125 127 158 146 141 118 48
24 22 20 19 17 12 9 9 12 12 14 14 4 15 30 28 8 22 40 83 144 88 64 6 354 329 326 320 253 261 144 160 97 135 147 119 196 138 132 135 137 130 160 123 136 113 154
24 21 18 17 17 14 12 9 11 15 18 20 16 18 23 38 37 41 39 105 120 46 47 335 319 323 326 293 314 26 123 152 117 136 145 70 127 124 84 142 125 159 148 125 115 89 106
25 21 17 14 14 15 15 12 9 13 16 16 14 19 21 36 40 34 82 103 65 38 6 334 320 335 352 14 20 48 93 97 111 96 71 69 97 79 119 71 84 145 93 57 57 74 84
24 20 18 16 15 15 16 14 10 12 15 32 23 24 28 31 22 56 98 74 45 59 329 332 336 331 343 356 20 52 59 47 72 95 103 68 15 10 71 70 21 112 138 88 45 41 194
26 23 22 18 17 16 15 15 12 13 13 28 37 42 44 39 25 37 64 56 65 277 311 318 324 322 33 2 28 35 62 32 11 32 88 112 109 359 352 96 157 141 140 136 144 197 196
26 25 23 19 14 14 13 13 13 14 15 15 13 34 35 29 36 34 64 58 76 315 295 320 319 18 349 4 38 39 43 27 22 12 75 99 53 331 58 103 127 193 112 159 101 17 75
26 25 24 21 18 14 12 12 14 14 26 17 11 28 21 23 42 81 63 91 73 5 323 2 34 41 2 344 31 39 22 346 344 17 341 358 84 359 326 49 18 130 154 85 13 133 186
23 23 24 23 22 19 16 14 14 16 26 33 41 45 4 22 62 60 77 66 36 2 21 37 16 9 353 15 51 19 2 357 2 337 335 353 94 286 43 15 149 69 129 74 112 126 163
18 21 22 23 23 21 19 19 18 14 21 38 45 44 5 36 58 36 40 18 16 343 16 29 89 37 38 2 30 53 62 6 353 329 352 359 4 101 178 214 237 131 177 124 151 210 102
13 15 17 21 23 23 22 23 23 18 16 24 66 44 27 56 66 12 38 43 50 10 4 10 22 27 355 21 65 55 353 8 1 3 359 344 315 74 3 336 119 218 202 130 113 76 189
6 8 10 15 21 22 24 25 26 25 21 29 52 26 24 49 71 99 39 16 28 21 49 4 19 14 23 28 17 32 351 341 336 360 333 315 39 87 196 252 15 160 163 163 139 137 181
356 1 4 9 15 21 22 27 30 30 32 43 44 33 23 343 13 64 77 14 2 10 357 25 34 21 332 66 5 25 8 326 315 3 359 58 97 257 175 347 354 305 173 179 177 178 175
341 349 359 4 11 18 22 26 33 35 35 46 63 57 66 45 358 54 15 347 28 320 49 342 79 317 16 120 162 196 22 26 6 328 3 338 177 349 155 25 26 265 257 300 181 146 89
330 332 347 356 4 11 21 22 30 35 36 45 40 51 79 5 14 54 267 224 288 9 311 298 300 40 20 202 262 269 248 253 268 334 330 16 5 31 254 13 47 307 255 191 79 345 130
314 320 327 341 353 3 13 19 25 32 37 34 34 33 41 290 84 191 203 217 285 301 205 307 340 99 335 317 304 253 247 251 253 246 202 22 70 332 247 70 198 224 78 332 281 192 202
295 305 311 318 332 351 1 11 18 26 34 32 29 28 29 134 163 217 250 231 288 278 263 272 284 306 315 327 43 29 340 12 318 295 182 215 45 16 214 228 305 251 197 174 186 263 176
278 289 298 303 310 322 346 357 8 18 21 28 26 18 12 131 248 186 155 224 200 249 336 256 278 305 333 39 68 122 211 219 309 328 49 105 74 105 3 175 226 262 166 151 189 271 166
268 274 283 291 294 301 314 338 354 2 12 15 18 14 360 308 218 205 167 181 161 139 194 287 322 285 4 70 79 148 225 171 229 212 175 9 11 172 232 276 292 288 158 141 130 253 150
262 267 273 281 285 289 296 309 336 341 358 6 2 2 359 292 254 233 236 199 181 209 140 257 19 279 38 73 129 216 152 216 97 218 189 170 155 210 88 135 274 147 96 199 188 124 150
257 260 265 269 274 277 280 285 300 330 334 351 354 350 344 290 262 243 256 244 248 250 262 213 247 195 185 85 53 105 183 161 161 263 323 281 195 178 186 212 200 188 219 196 163 163 173